RJA165 OJAI-LTFM

Flight info

Callsign RJA165
Flight time 2h 7m
Altitude 36000
Route MUVIN L53 SUVAS N128 TEZAK L324 SAFTA DCT TOMBI UA16 KFK UM855 SISPI
Aircraft A320/M-SDE3FGHIRWY/LB1

Departure

Time 2026-05-04 08:27
Airport Queen Alia International Airport (OJAI)

Arrival

Time 2026-05-04 10:35
Airport İstanbul Airport (LTFM)
Time Latitude Longitude Altitude Speed Heading
2026-05-04 07:22 31.72033 35.98648 2412 ft 0 kts 350°
2026-05-04 08:10 31.71951 35.98617 2411 ft 0 kts 80°
2026-05-04 08:16 31.71951 35.98621 2411 ft 0 kts 80°
2026-05-04 08:16 31.71952 35.98625 2411 ft 2 kts 80°
2026-05-04 08:17 31.71955 35.98649 2411 ft 4 kts 80°
2026-05-04 08:17 31.71962 35.98692 2411 ft 7 kts 80°
2026-05-04 08:17 31.71971 35.98755 2411 ft 9 kts 80°
2026-05-04 08:17 31.71983 35.98837 2411 ft 11 kts 81°
2026-05-04 08:19 31.72154 35.99601 2411 ft 10 kts
2026-05-04 08:19 31.72211 35.99590 2411 ft 9 kts 354°
2026-05-04 08:20 31.72280 35.99579 2411 ft 11 kts 352°
2026-05-04 08:20 31.72365 35.99562 2411 ft 14 kts 350°
2026-05-04 08:20 31.72465 35.99542 2411 ft 16 kts 350°
2026-05-04 08:20 31.72582 35.99517 2411 ft 18 kts 351°
2026-05-04 08:21 31.72713 35.99492 2411 ft 16 kts 351°
2026-05-04 08:21 31.72757 35.99516 2411 ft 8 kts 71°
2026-05-04 08:21 31.72772 35.99585 2411 ft 10 kts 82°
2026-05-04 08:21 31.72785 35.99675 2411 ft 12 kts 81°
2026-05-04 08:22 31.72799 35.99784 2411 ft 15 kts 82°
2026-05-04 08:22 31.72816 35.99909 2411 ft 17 kts 78°
2026-05-04 08:24 31.73059 36.00782 2411 ft 3 kts 352°
2026-05-04 08:24 31.73060 36.00782 2411 ft 0 kts 352°
2026-05-04 08:24 31.73061 36.00782 2411 ft 1 kts 352°
2026-05-04 08:25 31.73075 36.00780 2411 ft 3 kts 352°
2026-05-04 08:25 31.73105 36.00775 2411 ft 6 kts 352°
2026-05-04 08:25 31.73151 36.00767 2411 ft 8 kts 351°
2026-05-04 08:25 31.73205 36.00758 2411 ft 7 kts 351°
2026-05-04 08:26 31.73219 36.00723 2411 ft 6 kts 254°
2026-05-04 08:27 31.72592 35.96026 3348 ft 171 kts 258°
2026-05-04 08:28 31.72407 35.94601 3944 ft 178 kts 259°
2026-05-04 08:28 31.72168 35.93160 4570 ft 178 kts 257°
2026-05-04 08:28 31.71991 35.92207 5064 ft 173 kts 258°
2026-05-04 08:28 31.71772 35.90794 5624 ft 177 kts 261°
2026-05-04 08:29 31.71577 35.89307 5991 ft 192 kts 261°
2026-05-04 08:29 31.71339 35.87671 6304 ft 212 kts 261°
2026-05-04 08:29 31.71075 35.85905 6758 ft 227 kts 261°
2026-05-04 08:31 31.70325 35.71713 11641 ft 268 kts 297°
2026-05-04 08:33 31.80040 35.61280 12038 ft 257 kts 279°
2026-05-04 08:33 31.80489 35.59262 12034 ft 255 kts 278°
2026-05-04 08:35 31.84590 35.43921 13437 ft 323 kts 283°
2026-05-04 08:35 31.85355 35.41405 13974 ft 326 kts 283°
2026-05-04 08:35 31.86118 35.38884 14548 ft 328 kts 283°
2026-05-04 08:35 31.86881 35.36341 15087 ft 331 kts 283°
2026-05-04 08:37 31.91552 35.20664 18275 ft 340 kts 282°
2026-05-04 08:37 31.92332 35.18021 18758 ft 342 kts 282°
2026-05-04 08:37 31.93115 35.15370 19239 ft 344 kts 282°
2026-05-04 08:38 31.93908 35.12669 19712 ft 346 kts 282°
2026-05-04 08:38 31.94721 35.09907 20187 ft 347 kts 282°
2026-05-04 08:38 31.95280 35.08013 20512 ft 348 kts 282°
2026-05-04 08:40 32.00953 34.88664 23380 ft 357 kts 279°
2026-05-04 08:40 32.01449 34.85864 23747 ft 351 kts 271°
2026-05-04 08:40 32.01655 34.82926 24110 ft 351 kts 268°
2026-05-04 08:41 32.01787 34.79930 24476 ft 352 kts 268°
2026-05-04 08:41 32.01908 34.76962 24829 ft 354 kts 268°
2026-05-04 08:41 32.02058 34.73866 25187 ft 355 kts 268°
2026-05-04 08:41 32.02226 34.70871 25533 ft 357 kts 268°
2026-05-04 08:42 32.02394 34.67948 25855 ft 358 kts 268°
2026-05-04 08:42 32.02563 34.65022 26175 ft 359 kts 268°
2026-05-04 08:42 32.02726 34.62071 26477 ft 360 kts 268°
2026-05-04 08:42 32.02881 34.59153 26790 ft 361 kts 268°
2026-05-04 08:43 32.03039 34.56160 27086 ft 362 kts 268°
2026-05-04 08:43 32.03201 34.53179 27360 ft 364 kts 268°
2026-05-04 08:43 32.03366 34.50154 27651 ft 365 kts 268°
2026-05-04 08:43 32.03534 34.47155 27941 ft 366 kts 269°
2026-05-04 08:44 32.03706 34.44158 28224 ft 368 kts 269°
2026-05-04 08:44 32.03880 34.41144 28498 ft 368 kts 269°
2026-05-04 08:46 32.05573 34.21992 30537 ft 376 kts 282°
2026-05-04 08:46 32.06280 34.20068 30747 ft 383 kts 288°
2026-05-04 08:46 32.07626 34.17326 31081 ft 387 kts 291°
2026-05-04 08:46 32.09086 34.14594 31362 ft 388 kts 291°
2026-05-04 08:47 32.10545 34.11870 31697 ft 386 kts 291°
2026-05-04 08:47 32.11963 34.09147 32021 ft 384 kts 290°
2026-05-04 08:47 32.13332 34.06441 32332 ft 382 kts 290°
2026-05-04 08:47 32.14711 34.03692 32647 ft 380 kts 290°
2026-05-04 08:48 32.16081 34.00965 32941 ft 379 kts 290°
2026-05-04 08:48 32.17510 33.98291 33193 ft 384 kts 292°
2026-05-04 08:48 32.19066 33.95667 33471 ft 385 kts 293°
2026-05-04 08:48 32.20631 33.93100 33751 ft 384 kts 294°
2026-05-04 08:49 32.22198 33.90546 34016 ft 383 kts 293°
2026-05-04 08:50 32.32993 33.72592 34057 ft 382 kts 293°
2026-05-04 08:51 32.36086 33.67438 34064 ft 382 kts 293°
2026-05-04 08:51 32.39141 33.62319 34041 ft 383 kts 293°
2026-05-04 08:52 32.42220 33.57179 34034 ft 383 kts 294°
2026-05-04 08:52 32.45192 33.52221 34013 ft 383 kts 293°
2026-05-04 08:54 32.57442 33.31616 34009 ft 382 kts 293°
2026-05-04 08:55 32.60501 33.26462 33981 ft 382 kts 294°
2026-05-04 08:55 32.63558 33.21301 33986 ft 382 kts 294°
2026-05-04 09:01 32.95572 32.66811 33935 ft 378 kts 294°
2026-05-04 09:01 32.98570 32.61661 33904 ft 379 kts 294°
2026-05-04 09:02 33.01579 32.56492 33899 ft 380 kts 294°
2026-05-04 09:02 33.04576 32.51334 33900 ft 381 kts 294°
2026-05-04 09:03 33.07605 32.46110 33897 ft 383 kts 294°
2026-05-04 09:03 33.10639 32.40872 33915 ft 384 kts 294°
2026-05-04 09:04 33.13681 32.35623 33957 ft 384 kts 294°
2026-05-04 09:04 33.16714 32.30380 33998 ft 384 kts 294°
2026-05-04 09:05 33.19744 32.25126 33987 ft 384 kts 294°
2026-05-04 09:05 33.22758 32.19908 33998 ft 384 kts 294°
2026-05-04 09:06 33.25779 32.14657 33992 ft 383 kts 294°
2026-05-04 09:08 33.37779 31.93722 33899 ft 380 kts 294°
2026-05-04 09:08 33.40753 31.88510 33894 ft 381 kts 294°
2026-05-04 09:09 33.43762 31.83270 33891 ft 384 kts 296°
2026-05-04 09:09 33.45505 31.80796 33889 ft 396 kts 304°
2026-05-04 09:09 33.47674 31.78661 33888 ft 412 kts 314°
2026-05-04 09:09 33.50283 31.77052 33884 ft 433 kts 327°
2026-05-04 09:10 33.53191 31.75958 33961 ft 440 kts 332°
2026-05-04 09:10 33.58128 31.74387 33954 ft 441 kts 332°
2026-05-04 09:11 33.64018 31.72341 33924 ft 439 kts 330°
2026-05-04 09:11 33.69842 31.70130 33893 ft 440 kts 330°
2026-05-04 09:12 33.75724 31.67976 33864 ft 442 kts 330°
2026-05-04 09:14 33.99283 31.59399 33939 ft 443 kts 330°
2026-05-04 09:14 34.05193 31.57242 33932 ft 443 kts 331°
2026-05-04 09:15 34.11094 31.55077 33930 ft 443 kts 331°
2026-05-04 09:15 34.16995 31.52899 33918 ft 443 kts 331°
2026-05-04 09:17 34.43571 31.43095 33832 ft 445 kts 332°
2026-05-04 09:18 34.49493 31.40900 33863 ft 445 kts 332°
2026-05-04 09:18 34.55414 31.38707 33925 ft 444 kts 332°
2026-05-04 09:19 34.61334 31.36503 33900 ft 445 kts 332°
2026-05-04 09:19 34.67210 31.34315 33873 ft 445 kts 333°
2026-05-04 09:20 34.73132 31.32108 33846 ft 444 kts 333°
2026-05-04 09:20 34.79039 31.29905 33826 ft 444 kts 334°
2026-05-04 09:21 34.84944 31.27697 33839 ft 439 kts 336°
2026-05-04 09:21 34.90739 31.25537 33874 ft 430 kts 336°
2026-05-04 09:22 34.96612 31.23331 33886 ft 430 kts 336°
2026-05-04 09:22 35.02370 31.21164 33894 ft 430 kts 336°
2026-05-04 09:23 35.08105 31.19006 33892 ft 431 kts 336°
2026-05-04 09:23 35.13843 31.16849 33909 ft 432 kts 337°
2026-05-04 09:25 35.36822 31.08164 33860 ft 430 kts 337°
2026-05-04 09:26 35.42547 31.05988 33830 ft 430 kts 337°
2026-05-04 09:26 35.48220 31.03830 33810 ft 430 kts 337°
2026-05-04 09:27 35.53939 31.01659 33812 ft 430 kts 338°
2026-05-04 09:27 35.59669 30.99480 33809 ft 431 kts 338°
2026-05-04 09:28 35.65413 30.97276 33806 ft 433 kts 338°
2026-05-04 09:28 35.71173 30.95079 33835 ft 433 kts 338°
2026-05-04 09:29 35.76935 30.92883 33895 ft 433 kts 338°
2026-05-04 09:29 35.82687 30.90690 33897 ft 433 kts 338°
2026-05-04 09:30 35.88443 30.88455 33898 ft 433 kts 338°
2026-05-04 09:30 35.94203 30.86240 33899 ft 433 kts 338°
2026-05-04 09:31 35.99249 30.84298 33894 ft 432 kts 338°
2026-05-04 09:31 36.05051 30.82438 33858 ft 436 kts 350°
2026-05-04 09:32 36.11344 30.82105 33835 ft 439 kts 355°
2026-05-04 09:34 36.35506 30.81396 33805 ft 441 kts 355°
2026-05-04 09:34 36.41643 30.81210 33855 ft 441 kts 354°
2026-05-04 09:35 36.47779 30.80996 33898 ft 441 kts 355°
2026-05-04 09:35 36.53908 30.80776 33891 ft 441 kts 355°
2026-05-04 09:37 36.78321 30.79922 33836 ft 438 kts 355°
2026-05-04 09:38 36.84408 30.79711 33804 ft 438 kts 355°
2026-05-04 09:38 36.90623 30.79501 33805 ft 437 kts 355°
2026-05-04 09:39 36.96672 30.78914 33804 ft 436 kts 351°
2026-05-04 09:39 37.02754 30.78129 33828 ft 436 kts 351°
2026-05-04 09:40 37.08798 30.77363 33893 ft 436 kts 352°
2026-05-04 09:40 37.14833 30.76624 33899 ft 436 kts 352°
2026-05-04 09:42 37.39089 30.73587 33907 ft 433 kts 352°
2026-05-04 09:43 37.44200 30.72932 33888 ft 432 kts 352°
2026-05-04 09:43 37.50052 30.72067 33859 ft 432 kts 351°
2026-05-04 09:44 37.55999 30.71167 33854 ft 433 kts 351°
2026-05-04 09:46 37.79973 30.68157 33956 ft 432 kts 352°
2026-05-04 09:46 37.85956 30.67413 33917 ft 433 kts 352°
2026-05-04 09:47 37.91949 30.66652 33926 ft 431 kts 352°
2026-05-04 09:49 38.15751 30.63381 33902 ft 430 kts 353°
2026-05-04 09:51 38.36592 30.60589 33894 ft 432 kts 353°
2026-05-04 09:51 38.42582 30.59793 33903 ft 432 kts 353°
2026-05-04 09:52 38.48552 30.58999 33953 ft 431 kts 353°
2026-05-04 09:52 38.54775 30.58151 33937 ft 431 kts 353°
2026-05-04 09:53 38.60848 30.57336 33925 ft 431 kts 353°
2026-05-04 09:53 38.66827 30.56530 33879 ft 432 kts 353°
2026-05-04 09:54 38.72891 30.55720 33879 ft 432 kts 355°
2026-05-04 09:54 38.78871 30.54863 33890 ft 433 kts 349°
2026-05-04 09:55 38.84520 30.52248 33885 ft 434 kts 334°
2026-05-04 09:55 38.89881 30.48660 33901 ft 435 kts 333°
2026-05-04 09:56 38.95275 30.45123 33905 ft 436 kts 334°
2026-05-04 09:56 39.00734 30.41699 33915 ft 437 kts 335°
2026-05-04 09:57 39.06184 30.38209 33917 ft 438 kts 334°
2026-05-04 09:57 39.11628 30.34694 33943 ft 438 kts 335°
2026-05-04 09:58 39.17093 30.31174 33945 ft 439 kts 334°
2026-05-04 09:58 39.22552 30.27652 33917 ft 440 kts 335°
2026-05-04 10:00 39.43725 30.13928 33917 ft 443 kts 335°
2026-05-04 10:04 39.83251 29.91651 33956 ft 444 kts 339°
2026-05-04 10:04 39.89006 29.88423 33950 ft 444 kts 340°
2026-05-04 10:04 39.91982 29.87246 33878 ft 440 kts 351°
2026-05-04 10:05 39.94996 29.86832 33497 ft 433 kts
2026-05-04 10:05 39.97995 29.86815 32871 ft 431 kts
2026-05-04 10:05 40.01154 29.86910 31926 ft 434 kts
2026-05-04 10:05 40.04116 29.86995 30999 ft 439 kts
2026-05-04 10:06 40.07094 29.87024 30409 ft 434 kts
2026-05-04 10:06 40.10123 29.87007 30014 ft 424 kts
2026-05-04 10:06 40.13044 29.86976 29579 ft 416 kts
2026-05-04 10:08 40.29949 29.86940 26224 ft 390 kts
2026-05-04 10:08 40.32634 29.86932 26028 ft 383 kts
2026-05-04 10:08 40.35302 29.86925 26027 ft 384 kts
2026-05-04 10:08 40.38008 29.86931 25989 ft 384 kts
2026-05-04 10:09 40.40610 29.87313 25663 ft 380 kts 14°
2026-05-04 10:09 40.43090 29.88532 25245 ft 378 kts 28°
2026-05-04 10:09 40.45278 29.90395 24855 ft 378 kts 34°
2026-05-04 10:09 40.47399 29.92419 24439 ft 377 kts 35°
2026-05-04 10:10 40.49528 29.94487 24007 ft 372 kts 35°
2026-05-04 10:10 40.51696 29.96321 23364 ft 371 kts 24°
2026-05-04 10:10 40.54250 29.97149 22566 ft 369 kts
2026-05-04 10:10 40.56904 29.97189 21838 ft 366 kts 360°
2026-05-04 10:11 40.59414 29.97059 21084 ft 363 kts 359°
2026-05-04 10:11 40.61959 29.96928 20344 ft 360 kts
2026-05-04 10:11 40.64420 29.96869 19940 ft 347 kts
2026-05-04 10:11 40.66813 29.96824 19732 ft 331 kts 358°
2026-05-04 10:12 40.69056 29.96270 19564 ft 319 kts 347°
2026-05-04 10:12 40.71177 29.95347 19438 ft 308 kts 344°
2026-05-04 10:12 40.72533 29.94691 19233 ft 305 kts 343°
2026-05-04 10:12 40.74633 29.93659 18754 ft 306 kts 343°
2026-05-04 10:13 40.76757 29.92639 18320 ft 303 kts 344°
2026-05-04 10:13 40.78745 29.91712 17942 ft 301 kts 345°
2026-05-04 10:13 40.80716 29.90808 17561 ft 298 kts 345°
2026-05-04 10:13 40.82675 29.89909 17180 ft 297 kts 344°
2026-05-04 10:14 40.84534 29.88720 16783 ft 301 kts 330°
2026-05-04 10:14 40.86073 29.86708 16375 ft 310 kts 310°
2026-05-04 10:16 40.86600 29.66576 14239 ft 287 kts 277°
2026-05-04 10:16 40.86644 29.63970 13940 ft 278 kts 283°
2026-05-04 10:16 40.86862 29.61479 13751 ft 268 kts 286°
2026-05-04 10:16 40.87141 29.59025 13472 ft 265 kts 287°
2026-05-04 10:17 40.87430 29.56491 13180 ft 264 kts 286°
2026-05-04 10:17 40.87682 29.54096 12891 ft 263 kts 285°
2026-05-04 10:19 40.88967 29.37847 10196 ft 277 kts 282°
2026-05-04 10:19 40.89151 29.35312 9708 ft 277 kts 282°
2026-05-04 10:19 40.89310 29.32755 9413 ft 268 kts 281°
2026-05-04 10:19 40.89441 29.30355 9175 ft 259 kts 280°
2026-05-04 10:20 40.89573 29.27989 8906 ft 251 kts 281°
2026-05-04 10:20 40.89709 29.25729 8672 ft 243 kts 281°
2026-05-04 10:20 40.89846 29.23523 8507 ft 237 kts 281°
2026-05-04 10:20 40.89965 29.21546 8415 ft 229 kts 281°
2026-05-04 10:21 40.90084 29.19464 8199 ft 226 kts 282°
2026-05-04 10:21 40.90194 29.17515 7955 ft 224 kts 281°
2026-05-04 10:21 40.90317 29.15463 7676 ft 224 kts 281°
2026-05-04 10:21 40.90449 29.13187 7417 ft 222 kts 281°
2026-05-04 10:22 40.90681 29.09102 6984 ft 216 kts 281°
2026-05-04 10:22 40.90797 29.07128 6744 ft 215 kts 281°
2026-05-04 10:22 40.90908 29.05188 6504 ft 214 kts 281°
2026-05-04 10:23 40.91021 29.03204 6259 ft 214 kts 281°
2026-05-04 10:23 40.91107 29.01266 6022 ft 214 kts 276°
2026-05-04 10:25 40.88338 28.87558 4992 ft 219 kts 261°
2026-05-04 10:25 40.87929 28.85646 4992 ft 219 kts 261°
2026-05-04 10:25 40.87538 28.83697 4995 ft 212 kts 266°
2026-05-04 10:25 40.87542 28.81795 4995 ft 206 kts 291°
2026-05-04 10:26 40.88234 28.80172 5003 ft 204 kts 319°
2026-05-04 10:26 40.89398 28.79155 5013 ft 201 kts 337°
2026-05-04 10:26 40.90690 28.78440 5013 ft 201 kts 339°
2026-05-04 10:26 40.91910 28.77744 5015 ft 201 kts 336°
2026-05-04 10:27 40.93240 28.76825 5012 ft 201 kts 331°
2026-05-04 10:27 40.94437 28.75854 5012 ft 202 kts 330°
2026-05-04 10:27 40.95633 28.74882 5009 ft 202 kts 331°
2026-05-04 10:27 40.96443 28.74239 5010 ft 202 kts 332°
2026-05-04 10:28 40.98167 28.73416 4999 ft 196 kts 353°
2026-05-04 10:28 40.99528 28.73298 5003 ft 195 kts 358°
2026-05-04 10:28 41.00885 28.73263 4999 ft 195 kts 358°
2026-05-04 10:28 41.02238 28.73250 4868 ft 195 kts 359°
2026-05-04 10:29 41.03591 28.73231 4676 ft 194 kts 358°
2026-05-04 10:29 41.04940 28.73200 4458 ft 193 kts 358°
2026-05-04 10:29 41.06263 28.73168 4225 ft 191 kts 358°
2026-05-04 10:29 41.07606 28.73140 3994 ft 190 kts 358°
2026-05-04 10:30 41.08910 28.73112 3745 ft 191 kts 358°
2026-05-04 10:30 41.10239 28.73085 3485 ft 188 kts 358°
2026-05-04 10:30 41.11515 28.73059 3269 ft 181 kts 358°
2026-05-04 10:30 41.12767 28.73033 3020 ft 180 kts 358°
2026-05-04 10:31 41.13613 28.73015 2847 ft 180 kts 358°
2026-05-04 10:31 41.14856 28.73116 2662 ft 175 kts
2026-05-04 10:32 41.20890 28.72865 1457 ft 123 kts 355°
2026-05-04 10:33 41.21774 28.72846 1279 ft 122 kts 355°
2026-05-04 10:33 41.22626 28.72828 1109 ft 122 kts 355°
2026-05-04 10:33 41.23479 28.72811 939 ft 122 kts 355°
2026-05-04 10:33 41.24334 28.72792 773 ft 121 kts 355°
2026-05-04 10:34 41.25182 28.72775 611 ft 121 kts 355°
2026-05-04 10:34 41.26025 28.72764 441 ft 121 kts 356°
2026-05-04 10:34 41.26853 28.72757 340 ft 112 kts 355°
2026-05-04 10:34 41.27463 28.72729 339 ft 64 kts 358°
2026-05-04 10:35 41.27834 28.72721 339 ft 44 kts
2026-05-04 10:35 41.28033 28.72796 339 ft 15 kts 28°
2026-05-04 10:35 41.28058 28.72814 339 ft 1 kts 29°
2026-05-04 10:35 41.28073 28.72825 339 ft 4 kts 29°
2026-05-04 10:36 41.28099 28.72844 339 ft 5 kts 30°
2026-05-04 10:36 41.28130 28.72876 339 ft 3 kts 57°
2026-05-04 10:36 41.28135 28.72908 339 ft 5 kts 102°
2026-05-04 10:36 41.28125 28.72932 339 ft 2 kts 135°
2026-05-04 10:37 41.28103 28.72946 339 ft 5 kts 166°
2026-05-04 10:37 41.28062 28.72946 339 ft 7 kts 181°
2026-05-04 10:37 41.28002 28.72945 339 ft 10 kts 180°
2026-05-04 10:37 41.27923 28.72947 339 ft 12 kts 179°
2026-05-04 10:39 41.27173 28.72965 339 ft 24 kts 179°
2026-05-04 10:39 41.27004 28.72969 339 ft 20 kts 179°
2026-05-04 10:39 41.26954 28.72982 339 ft 3 kts 127°
2026-05-04 10:40 41.26950 28.73015 339 ft 5 kts 85°
2026-05-04 10:40 41.26951 28.73070 339 ft 7 kts 89°
2026-05-04 10:40 41.26953 28.73148 339 ft 10 kts 89°
2026-05-04 10:40 41.26954 28.73249 339 ft 12 kts 89°
2026-05-04 10:41 41.26956 28.73372 339 ft 15 kts 89°
2026-05-04 10:41 41.26957 28.73520 339 ft 17 kts 88°
2026-05-04 10:41 41.26962 28.73691 339 ft 20 kts 88°
2026-05-04 10:41 41.26963 28.73869 339 ft 20 kts 90°
2026-05-04 10:42 41.26965 28.74063 339 ft 22 kts 88°
2026-05-04 10:42 41.26966 28.74284 339 ft 25 kts 89°
2026-05-04 10:42 41.26972 28.74492 339 ft 15 kts 88°
2026-05-04 10:42 41.26968 28.74578 339 ft 6 kts 120°
2026-05-04 10:43 41.26944 28.74592 339 ft 5 kts 180°
2026-05-04 10:44 41.26501 28.74584 339 ft 6 kts 198°
2026-05-04 10:45 41.26456 28.74564 339 ft 6 kts 198°
2026-05-04 10:45 41.26424 28.74532 339 ft 5 kts 236°
2026-05-04 10:45 41.26418 28.74506 339 ft 3 kts 275°
2026-05-04 10:45 41.26426 28.74471 339 ft 2 kts 282°
2026-05-04 10:46 41.26428 28.74447 339 ft 0 kts 267°
2026-05-04 10:46 41.26427 28.74437 339 ft 2 kts 266°
2026-05-04 10:46 41.26426 28.74411 339 ft 2 kts 269°
2026-05-04 10:46 41.26426 28.74397 339 ft 2 kts 269°
2026-05-04 10:47 41.26426 28.74370 339 ft 2 kts 269°
2026-05-04 10:47 41.26426 28.74359 339 ft 2 kts 269°
2026-05-04 10:47 41.26426 28.74351 339 ft 0 kts 269°
2026-05-04 10:47 41.26426 28.74348 339 ft 0 kts 269°